Probability
0 0 0 0 0 0 0 0 1 2 3 3 3 1 0 0 0 0 0 0 2 6 8 8 9 8 5 3 2 3 2 2 4 4 4 3 3 3 4 4 4 4 3
0 0 0 0 0 0 0 0 0 1 2 3 2 1 0 0 0 0 0 0 1 4 7 8 8 6 4 2 1 2 2 2 2 3 3 3 3 3 3 4 4 4 3
0 0 0 0 0 0 0 0 0 0 1 2 1 1 0 0 0 0 0 0 0 1 4 6 7 6 3 1 0 0 1 1 1 1 2 2 2 2 3 4 4 3 2
0 0 0 0 0 0 0 0 0 0 0 0 0 0 0 0 0 0 0 0 0 0 2 4 5 5 3 1 0 0 0 0 0 0 1 1 1 2 3 3 2 2 2
0 0 0 0 0 0 0 0 0 0 0 0 0 0 0 0 0 0 0 0 0 1 1 3 4 4 3 1 0 0 1 1 1 0 0 0 0 1 2 1 1 2 2
0 0 0 0 0 0 0 0 0 0 0 0 0 0 0 0 0 0 0 0 1 2 3 3 3 3 2 1 0 0 1 2 2 1 0 0 0 0 0 0 1 1 1
0 0 0 0 0 0 0 0 0 0 0 0 0 0 0 0 0 0 0 0 1 2 3 3 3 2 1 0 0 0 1 1 2 1 0 0 0 0 0 0 0 0 0
0 0 0 0 0 0 0 0 0 0 0 0 0 0 0 0 0 0 0 0 0 1 1 2 2 1 0 0 0 0 0 0 1 1 0 0 0 0 0 0 0 0 0
0 0 0 0 0 0 0 0 0 0 0 0 0 0 0 0 0 0 0 0 0 0 0 1 1 0 0 0 0 0 0 0 0 0 0 0 0 0 0 0 0 0 0
0 0 0 0 0 0 0 0 0 0 0 0 0 0 0 0 0 0 0 0 0 0 0 0 0 0 0 0 0 0 0 0 0 0 0 0 0 0 0 0 0 0 0
0 0 0 0 0 0 0 0 0 0 0 0 0 0 0 0 0 0 0 0 0 0 0 0 0 0 0 0 0 0 0 0 0 0 0 0 0 0 0 0 0 0 0
0 0 0 0 0 0 0 0 0 0 0 0 0 0 0 0 0 0 0 0 0 0 0 0 0 0 0 0 0 0 0 0 0 0 0 0 0 0 0 0 0 0 0
0 0 0 0 0 0 0 0 0 0 0 0 0 0 0 0 0 0 0 0 0 0 0 0 0 0 0 0 0 0 0 0 0 0 0 0 0 0 0 0 0 0 0
0 0 0 0 0 0 0 0 0 0 0 0 0 0 0 0 0 0 0 0 0 0 0 0 0 0 0 0 0 0 0 0 0 0 0 0 0 0 0 0 0 0 0
0 0 0 0 0 0 0 0 0 0 0 0 0 0 0 0 0 0 0 0 0 0 0 0 0 0 0 0 0 0 0 0 0 0 0 0 0 0 0 0 0 0 0
0 0 0 0 0 0 0 0 0 0 0 0 0 0 0 0 0 0 0 0 0 0 0 0 0 0 0 0 0 0 0 0 0 0 0 0 0 0 0 0 0 0 0
0 0 0 0 0 0 0 0 0 0 0 0 0 0 0 0 0 0 0 0 0 0 0 0 0 0 0 0 0 0 0 0 0 0 0 0 0 0 0 0 0 0 0
0 0 0 0 0 0 0 0 0 0 0 0 0 0 0 0 0 0 0 0 0 0 0 0 0 0 0 0 0 0 0 0 0 0 0 0 0 0 0 0 0 0 0
0 0 0 0 0 0 0 0 0 0 0 0 0 0 0 0 0 0 0 0 0 0 0 0 0 0 0 0 0 0 0 0 0 0 0 0 0 0 0 0 0 0 0
0 0 0 0 0 0 0 0 0 0 0 0 0 0 0 0 0 0 0 0 0 0 0 0 0 0 0 0 0 0 0 0 0 0 0 0 0 0 0 0 0 0 0
0 0 0 0 0 0 0 0 0 0 0 0 0 0 0 0 0 0 0 0 0 0 0 0 0 0 0 0 0 0 0 0 0 0 0 0 0 0 0 0 0 0 0
0 0 0 0 0 0 0 0 0 0 0 0 0 0 0 0 0 0 0 0 0 0 0 0 0 0 0 0 0 0 0 0 0 0 0 0 0 0 0 0 0 0 0
0 0 0 0 0 0 0 0 0 0 0 0 0 0 0 0 0 0 0 0 0 0 0 0 0 0 0 0 0 0 0 0 0 0 0 0 0 0 0 0 0 0 0
0 0 0 0 0 0 0 0 0 0 0 0 0 0 0 0 0 0 0 0 0 0 0 0 0 0 0 0 0 0 0 0 0 0 0 0 0 0 0 0 0 0 0
0 0 0 0 0 0 0 0 0 0 0 0 0 0 0 0 0 0 0 0 0 0 0 0 0 0 0 0 0 0 0 0 0 0 0 0 0 0 0 0 0 0 0
0 0 0 0 0 0 0 0 0 0 0 0 0 0 0 0 0 0 0 0 0 0 0 0 0 0 0 0 0 0 0 0 0 0 0 0 0 0 0 0 0 0 0
Wind_Speed
3 2 2 1 1 1 2 2 3 4 4 3 3 3 2 3 3 3 3 4 4 3 4 3 4 4 4 4 5 4 5 4 3 3 4 4 6 6 5 5 5 5 5
3 3 2 2 2 2 2 2 3 4 3 3 3 3 3 3 3 3 3 3 3 3 3 4 3 4 3 5 5 5 4 3 3 3 3 4 4 5 4 5 5 5 4
4 3 3 3 3 2 2 2 3 4 3 4 3 3 2 3 3 3 3 3 3 3 3 4 4 4 4 4 4 5 5 4 4 3 3 4 4 2 3 5 5 5 4
5 4 4 3 3 3 2 3 3 3 3 3 3 4 3 3 4 4 3 4 3 3 3 4 4 4 3 4 4 4 4 5 4 3 3 4 3 3 2 3 3 4 4
5 5 4 4 4 3 3 3 3 3 3 3 3 4 4 4 3 3 4 4 3 3 3 3 3 3 3 4 4 4 5 4 5 4 3 4 3 4 4 4 3 3 3
5 5 4 4 3 3 3 3 3 3 3 3 3 3 4 4 4 4 3 3 2 2 3 3 3 3 3 3 4 4 5 4 5 4 4 4 3 4 4 5 4 4 3
5 5 5 4 4 4 3 4 4 4 3 3 4 4 4 4 5 4 4 4 3 2 3 3 3 2 2 3 3 3 3 4 4 4 3 3 4 3 3 4 4 4 4
4 5 5 5 5 5 4 4 5 5 4 4 4 4 4 3 3 4 4 4 3 3 3 3 3 2 2 2 2 2 2 2 3 3 3 3 2 2 3 3 4 4 4
4 5 5 6 5 5 5 5 5 5 4 4 4 4 4 4 4 4 3 3 3 3 3 3 2 2 2 2 2 1 2 2 2 2 3 3 2 2 2 3 3 4 5
5 5 6 6 6 5 5 5 5 6 5 4 4 3 3 4 3 3 3 3 3 3 3 3 3 2 2 2 2 1 1 1 1 1 2 2 2 2 2 2 3 4 5
6 6 5 5 5 5 5 5 5 5 5 4 4 4 3 3 3 3 3 3 3 3 3 3 3 2 2 2 2 2 2 2 2 2 2 2 2 2 2 2 3 3 4
6 6 6 5 5 5 5 5 5 5 5 4 4 4 3 3 3 3 3 3 3 3 3 3 3 2 2 2 2 2 2 2 2 2 2 3 2 3 2 2 3 3 4
7 6 5 5 5 5 5 5 5 5 5 4 4 4 4 3 3 3 3 3 3 3 3 3 3 3 3 3 3 3 3 2 2 3 3 3 3 3 3 3 3 3 3
7 6 6 6 6 5 6 6 6 5 4 4 4 5 4 4 4 3 3 3 3 3 3 3 3 3 3 3 3 3 3 3 3 3 3 3 3 4 3 3 3 3 3
7 7 7 6 6 6 6 6 6 5 5 5 5 5 4 4 3 3 3 3 3 3 3 3 3 3 3 2 3 3 3 3 3 3 3 3 3 3 3 3 3 3 3
8 8 7 7 7 6 6 6 6 5 5 6 6 5 4 4 4 3 3 3 3 3 3 3 3 3 2 2 3 3 3 3 3 3 3 3 3 3 4 4 4 4 4
9 9 8 8 7 7 7 7 6 5 6 6 6 5 5 5 4 4 4 4 4 3 3 3 3 3 3 3 4 4 3 3 3 3 3 2 2 3 3 3 4 4 5
9 9 8 8 7 6 6 6 6 6 6 7 6 6 5 5 5 4 5 5 4 4 4 3 4 3 3 3 4 4 4 3 3 3 3 3 3 2 3 3 3 3 3
10 9 8 8 7 7 6 6 6 6 7 7 7 7 6 6 5 5 5 5 4 4 4 4 4 4 3 4 4 4 3 3 3 3 2 3 3 2 3 3 3 4 3
8 8 8 7 7 7 6 7 7 8 8 8 7 6 6 6 7 6 5 4 4 4 4 4 4 4 4 4 4 4 3 3 2 2 2 3 3 3 3 3 3 4 4
9 8 7 7 7 6 6 8 8 9 8 6 6 6 6 7 7 6 5 5 4 4 4 4 4 4 4 4 4 5 3 3 3 2 2 2 2 3 3 3 3 3 4
9 7 7 7 6 6 7 9 10 8 6 6 6 7 7 6 5 6 5 5 5 5 4 4 4 3 3 4 5 6 5 4 3 3 2 1 1 2 2 2 2 3 3
9 7 7 8 7 7 8 10 9 6 6 7 7 7 6 6 6 6 6 5 5 4 4 4 4 3 3 3 5 5 5 5 3 2 1 1 1 2 1 1 2 2 2
8 7 8 8 8 7 8 10 8 6 7 8 7 6 6 6 6 5 5 5 5 5 5 5 4 4 3 3 3 3 3 4 4 2 2 2 1 1 1 1 1 1 1
8 7 8 9 10 8 8 8 7 7 8 8 7 6 6 6 6 6 5 6 6 5 5 5 4 4 4 4 5 3 3 3 3 2 2 2 2 2 1 1 1 1 1
9 8 9 10 9 8 8 7 7 8 8 7 7 6 5 5 5 5 4 5 6 6 7 6 5 4 4 4 6 6 5 5 5 3 3 3 3 2 2 2 2 2 2
Wind_Direction
231 222 215 216 246 282 309 324 333 336 334 328 319 310 305 306 304 306 301 298 296 287 269 262 255 245 234 234 232 229 228 234 235 239 242 244 239 237 237 234 229 221 221
219 214 222 223 242 265 293 308 319 325 327 320 313 296 296 294 297 290 293 297 295 292 274 263 254 247 238 232 226 224 223 226 221 232 240 240 230 223 228 229 227 227 220
237 229 227 232 243 260 285 298 310 314 317 313 302 293 282 275 277 287 299 308 303 292 286 277 263 252 243 238 233 229 227 223 220 231 236 238 235 230 213 225 226 224 221
242 243 239 241 247 259 270 278 289 300 307 301 293 291 284 288 293 300 298 303 304 297 294 287 273 257 246 241 238 234 236 227 221 224 239 260 286 252 234 223 231 238 237
246 247 247 249 254 258 261 268 279 290 301 298 292 288 286 289 290 293 294 298 304 314 309 298 289 281 266 253 244 238 233 230 228 224 226 231 245 254 251 248 237 246 249
249 249 247 246 250 253 254 261 270 281 292 291 285 282 286 292 293 294 296 297 294 295 303 300 291 284 278 267 254 245 238 236 232 229 230 231 227 231 238 246 248 253 253
255 252 247 245 248 251 255 259 265 272 281 282 281 281 283 282 283 287 287 288 288 292 300 300 293 293 292 283 270 257 245 236 233 231 232 236 240 246 247 253 259 265 263
257 256 254 254 253 252 255 258 263 269 273 275 279 282 285 281 281 284 286 285 288 293 301 301 302 302 297 287 280 273 260 246 236 230 229 229 236 240 242 244 252 262 259
266 264 260 254 255 255 255 257 260 263 265 268 270 274 279 280 282 284 283 285 291 297 300 298 301 304 298 293 281 266 260 245 239 229 226 231 235 236 242 245 247 253 261
281 273 266 259 256 254 254 253 251 255 261 264 266 272 275 279 281 278 279 280 283 288 292 294 292 293 287 277 263 255 253 233 232 238 230 233 239 238 240 243 250 251 257
287 281 275 266 260 253 248 246 247 250 255 258 260 263 267 268 273 274 274 274 274 272 273 276 274 278 279 273 257 246 242 232 232 229 229 235 240 240 241 241 246 256 259
286 280 273 267 257 249 245 242 243 245 247 250 252 257 262 261 261 265 269 268 268 267 263 257 254 259 262 261 252 243 236 230 232 236 236 243 242 244 250 249 252 257 261
286 278 270 263 257 251 246 243 243 244 247 246 244 247 248 250 252 259 266 264 262 262 261 258 252 250 249 245 242 239 237 233 235 240 242 246 245 244 249 250 255 260 264
279 273 269 265 259 252 246 244 243 241 241 239 240 243 243 244 249 257 259 259 258 259 256 254 258 255 249 244 237 235 236 238 244 247 246 248 248 251 253 254 258 264 268
281 275 269 266 259 252 246 242 241 235 229 229 233 239 241 241 241 242 247 250 251 254 255 254 254 252 248 244 239 234 235 235 239 244 249 253 262 269 264 265 268 270 270
281 279 273 266 259 253 248 243 238 230 225 227 229 231 230 231 233 235 238 238 240 244 245 246 250 249 243 232 237 240 234 231 234 240 245 246 243 246 249 259 270 273 272
282 278 274 267 262 256 248 243 239 230 225 227 228 224 223 226 227 226 227 231 233 235 239 243 242 241 230 219 227 234 238 231 234 240 244 246 252 257 259 257 264 271 270
282 279 275 270 264 258 249 243 234 227 225 227 227 224 221 225 224 224 226 228 226 228 232 237 239 238 230 221 226 230 231 230 233 241 249 252 258 265 279 280 280 288 294
284 281 276 271 264 255 246 236 233 228 225 227 227 223 220 222 223 225 227 225 225 227 228 230 232 234 230 218 222 228 227 229 233 242 260 267 266 280 278 269 274 290 303
285 281 277 269 261 253 240 231 234 231 230 229 227 222 219 221 224 227 226 222 222 225 223 227 232 234 235 221 224 227 230 235 238 246 255 262 273 285 277 268 270 282 299
288 283 274 265 259 250 235 234 237 237 236 230 225 221 219 222 225 224 220 218 218 219 220 227 231 235 240 232 227 226 232 237 238 244 252 257 261 279 289 288 283 291 303
286 280 272 266 261 243 233 238 241 241 233 222 221 222 220 218 217 219 217 215 213 217 223 227 230 231 234 234 232 230 231 235 235 241 247 251 268 292 297 293 311 313 305
284 279 271 268 260 242 232 239 243 236 223 219 222 221 218 215 212 213 213 211 212 217 222 225 230 229 226 221 222 225 225 225 232 232 228 258 269 275 264 292 316 311 299
281 278 272 267 262 249 239 240 241 226 221 223 223 217 214 214 212 213 212 213 213 216 219 221 226 227 225 223 213 211 214 214 218 220 211 218 219 243 269 278 277 293 303
277 271 264 264 264 258 250 242 233 219 219 223 222 218 216 214 212 213 214 218 221 222 222 222 221 221 227 222 215 212 212 212 206 204 215 219 218 225 235 251 264 272 278
276 271 267 265 265 259 253 245 229 218 216 218 218 215 213 211 211 210 214 220 232 228 231 239 234 232 233 217 211 215 213 201 194 205 218 222 226 232 240 248 258 263 270